SCP
0 0 0 0 0 0 0 0 0 0 0 0 0 0 0 0 0 0 0 0 0 0 0 0 0 0 0 0 0 0 0 0 0 0 0 0 0 0 0 0 0 0 0 0 0 0 0
0 0 0 0 0 0 0 0 0 0 0 0 0 0 0 0 0 0 0 0 0 0 0 0 0 0 0 0 0 0 0 0 0 0 0 0 0 0 0 0 0 0 0 0 0 0 0
0 0 0 0 0 0 0 0 0 0 -0 -0 0 0 0 0 0 0 0 0 0 0 0 0 0 0 0 0 0 -0 0 0 0 0 0 0 0 0 0 0 0 0 0 0 0 0 0
0 0 0 0 0 0 0 0 0 -0 0 0 0 0 0 0 0 0 0 0 0 -0 0 0 0 0 0 0 0 -0 0 0 0 0 0 0 0 0 0 0 0 0 0 0 0 0 0
0 0 0 0 0 0 0 0 0 0 0 0 0 0 0 0 0 -0 -0 0 -0 -0 0 0 0 -0 0 0 0 0 0 0 0 0 0 0 0 0 0 0 0 0 0 0 0 0 0
0 0 0 0 0 0 0 0 -0 0 0 0 0 0 0 0 -0 -0 -0 0 0 0 0 0 0 0 0 0 0 0 0 0 0 0 0 0 0 0 0 0 0 0 0 0 0 0 0
0 0 0 0 0 0 0 0 0 0 0 0 0 0 0 -0 -0 0 0 0 0 -0 0 0 0 0 0 0 0 0 0 0 0 0 0 0 0 0 0 0 0 0 0 0 0 0 0
0 0 0 0 0 0 0 0 -0 0 0 0 0 0 0 -0 0 0 0 -0 -0 0 0 0 0 0 0 0 0 -0 0 0 0 0 0 0 0 0 0 0 0 0 0 0 0 0 0
0 0 0 0 0 0 0 0 0 0 0 0 0 0 0 0 0 0 0 0 0 0 0 0 -0 0 0 0 0 0 -0 0 0 0 0 0 0 0 0 0 0 0 0 0 0 0 0
0 0 0 0 0 0 -0 0 0 0 0 0 0 0 0 0 0 0 0 0 0 0 0 0 0 0 0 0 0 0 0 0 0 0 0 0 0 0 0 0 0 0 0 0 0 0 0
0 0 0 0 0 0 -0 -0 -0 -0 0 0 0 0 0 0 0 0 0 0 0 0 0 0 0 0 0 0 0 0 0 0 0 0 0 0 0 0 0 0 0 0 0 0 0 0 0
0 0 0 0 0 0 0 0 -0 -0 0 0 0 0 0 0 0 0 0 0 0 0 0 0 0 0 0 0 0 0 0 0 0 0 0 0 0 0 0 0 0 0 0 0 0 0 0
0 0 0 0 0 0 0 0 0 0 0 0 0 0 0 0 0 0 0 0 0 0 0 0 0 0 0 0 0 0 0 0 0 0 0 0 0 0 0 0 0 0 0 0 0 0 0
0 0 0 0 0 -0 0 -0 -0 -0 0 0 0 0 0 0 0 0 0 0 0 0 0 0 0 0 0 0 0 0 0 0 0 0 0 0 0 0 0 0 0 0 0 0 0 0 0
0 0 0 0 0 0 -0 -0 -0 -0 -0 0 0 0 0 0 0 0 0 0 0 0 0 0 0 0 0 0 0 0 0 0 0 0 0 0 0 0 0 0 0 0 0 0 0 0 0
0 0 0 0 0 0 -0 -0 -0 -0 -0 0 0 0 0 0 0 0 0 0 0 0 0 0 0 0 0 0 0 0 0 0 0 0 0 0 0 0 0 0 0 0 0 0 0 0 0
0 0 0 0 0 0 -0 -0 -0 -0 -0 0 0 0 0 0 0 0 0 0 0 0 0 0 0 0 0 0 0 0 0 0 0 0 0 0 0 0 0 0 0 0 0 0 0 0 0
0 0 0 0 0 0 -0 -0 -0 -0 -0 0 0 0 0 0 -0 0 0 0 0 0 0 0 0 0 0 0 0 0 0 0 0 0 0 0 0 0 0 0 0 0 0 0 0 0 0
0 0 0 0 0 0 0 -0 -0 -0 -0 0 0 0 0 0 -0 -0 0 0 0 0 0 0 0 0 0 0 0 0 0 0 0 0 0 0 0 0 0 0 0 0 0 0 0 0 0
0 0 0 0 0 0 0 -0 -0 -0 -0 0 0 -0 -0 -0 -0 -0 -0 0 0 -0 -0 -0 -0 -0 0 0 0 0 0 0 0 0 0 0 0 0 0 0 0 0 0 0 0 0 0
0 0 0 0 0 0 0 0 -0 -0 -0 0 0 0 0 0 0 -0 0 0 -0 0 -0 -0 -0 -0 -0 0 0 0 0 0 0 0 0 0 0 0 0 0 0 0 0 0 0 0 0
0 0 0 0 0 0 0 0 -0 -0 -0 0 0 0 0 -0 0 0 0 -0 0 -0 -0 -0 0 0 -0 0 0 -0 0 0 0 0 0 0 0 0 0 0 0 0 0 0 0 0 0
0 0 0 0 0 0 0 0 -0 -0 0 0 0 0 0 0 -0 -0 0 0 0 0 -0 -0 -0 0 0 0 0 0 0 0 0 0 0 0 0 0 0 0 0 0 -0 -0 0 0 0
0 0 0 0 0 0 0 0 0 0 0 0 0 0 0 0 0 0 0 0 0 0 0 -0 -0 -0 0 0 0 0 0 0 0 0 0 0 0 0 0 0 0 0 0 0 -0 0 0
0 0 0 0 0 0 0 0 0 0 0 0 0 0 0 0 0 0 0 0 0 0 0 0 0 0 0 0 0 0 0 0 0 0 0 0 0 0 0 0 0 0 0 0 0 0 0
0 0 0 0 0 0 0 0 0 0 0 0 0 0 0 0 0 0 0 0 0 0 0 0 0 0 0 0 0 0 0 0 0 0 0 0 0 0 0 0 0 0 0 0 0 0 0
0 0 -0 0 0 0 0 0 0 0 0 0 -0 -0 0 0 0 0 0 0 0 0 0 0 0 0 0 0 0 0 0 0 0 0 0 0 0 0 0 0 0 0 0 0 0 0 0
0 0 0 0 0 0 0 -0 -0 0 0 -0 0 0 0 0 0 0 0 0 0 0 0 0 0 0 0 0 0 0 0 0 0 0 0 0 0 0 0 0 0 0 0 0 0 0 0
0 0 0 0 0 0 0 0 -0 0 -0 -0 -0 -0 -0 -0 0 0 0 0 0 0 0 0 0 0 0 0 0 0 0 0 0 0 0 0 0 0 0 0 0 0 0 0 0 0 0
Wind_Speed_500mb
45 46 47 55 55 58 60 57 61 61 58 56 49 45 44 35 29 28 22 21 17 18 18 18 20 18 13 22 46 17 33 19 52 50 52 50 62 46 33 29 29 25 13 17 11 16 14
47 47 53 54 53 61 64 67 63 62 59 58 50 45 40 42 25 25 19 19 17 17 16 17 13 16 13 31 35 47 40 7 50 57 56 50 50 40 36 29 29 31 11 31 19 18 9
47 51 51 57 62 62 62 60 63 58 58 57 56 50 44 45 27 24 23 18 19 15 16 19 21 17 23 37 17 41 46 25 44 60 58 45 37 36 24 17 25 18 27 17 21 18 16
48 52 53 57 58 66 62 65 61 58 57 57 52 48 38 37 27 21 23 19 19 17 14 10 14 15 18 23 31 22 24 17 38 54 49 39 44 27 21 15 24 25 14 18 22 36 15
50 54 55 57 63 62 62 56 61 64 71 63 59 47 40 31 20 16 13 15 16 16 14 10 13 13 11 19 28 24 30 16 44 49 43 45 45 24 16 28 19 28 21 34 10 15 16
53 52 55 56 60 59 60 60 61 69 70 68 55 34 28 15 13 10 5 9 0 4 14 14 9 10 16 26 19 29 31 18 48 47 38 38 26 20 25 28 28 31 30 23 27 11 18
52 51 52 56 58 56 56 58 64 70 70 66 56 40 12 2 3 6 10 6 3 7 13 9 11 3 16 21 20 22 36 31 48 54 21 51 20 38 40 34 1 20 31 21 16 5 8
56 49 51 53 57 54 55 55 59 67 69 59 53 38 19 11 6 3 10 7 7 2 5 14 9 23 21 8 14 17 29 23 30 39 25 15 28 33 29 20 15 25 25 19 9 7 7
54 48 49 52 57 52 53 54 56 64 74 66 54 32 16 16 12 9 7 10 7 3 2 9 6 14 6 11 11 15 16 1 36 24 36 13 26 36 30 27 23 17 21 13 4 8 2
53 53 49 51 55 53 49 49 52 56 64 74 62 38 22 17 10 13 16 12 6 4 1 9 5 5 9 7 12 15 26 1 10 13 15 4 1 40 37 31 28 19 10 15 11 6 8
53 53 49 50 55 57 48 44 43 43 49 61 69 47 28 22 6 11 11 8 3 8 6 15 10 10 14 3 17 17 21 16 18 20 8 5 6 37 36 35 27 7 13 14 8 5 4
49 50 52 51 55 56 50 42 38 33 31 38 45 49 36 21 18 10 5 4 5 6 12 9 13 11 9 19 14 13 5 19 19 19 22 9 9 8 5 17 11 28 20 14 7 2 7
45 47 50 51 56 55 54 44 40 35 29 29 28 30 36 18 11 9 11 13 3 12 3 11 9 10 22 16 15 10 5 5 7 9 6 6 7 6 6 17 9 2 15 7 8 7 2
41 42 49 54 56 57 55 53 41 37 36 34 29 21 22 22 16 18 15 5 17 7 4 7 10 25 13 8 9 10 15 11 8 6 7 7 9 3 1 2 12 16 7 5 7 8 7
38 39 47 54 57 59 61 57 55 40 36 34 24 9 18 24 16 13 1 11 6 3 5 12 13 12 9 13 8 5 9 6 6 3 4 9 8 7 2 3 8 7 8 5 7 2 4
35 37 43 52 58 58 61 62 58 48 37 29 15 1 26 25 16 7 2 11 2 7 5 3 5 4 6 7 6 6 3 4 5 3 3 5 12 6 6 2 18 3 16 5 2 7 8
32 36 40 48 58 65 62 63 59 57 36 30 10 1 26 20 17 12 7 7 5 4 5 4 6 8 10 7 9 8 6 3 4 6 5 9 6 8 6 7 12 7 6 3 1 4 4
30 35 39 47 57 61 66 58 59 59 38 27 7 1 16 14 6 6 4 4 4 5 3 3 5 7 7 7 8 4 6 2 7 6 6 4 8 9 4 4 4 3 5 10 6 8 0
29 33 38 45 54 59 69 63 57 53 37 28 7 3 14 8 5 6 4 3 3 9 7 5 3 1 2 6 4 5 6 4 10 6 8 10 6 9 4 5 5 11 11 6 7 2 10
31 33 37 44 50 61 68 65 54 46 33 18 5 1 9 15 9 4 2 1 3 2 1 2 4 3 6 5 7 8 6 4 3 1 8 6 5 1 5 5 7 9 19 20 10 7 8
34 31 35 45 47 55 63 63 54 43 32 11 8 4 2 2 6 3 1 4 4 3 3 2 3 3 5 6 6 7 6 7 6 10 4 1 5 3 2 4 6 6 13 26 20 13 11
31 30 35 44 46 44 54 56 55 42 32 10 6 5 5 1 4 2 1 2 4 2 3 2 4 7 4 4 3 12 13 9 6 9 7 1 6 3 3 3 11 15 21 23 30 31 28
28 26 34 45 45 38 45 47 52 45 37 17 9 6 4 3 1 4 3 2 3 7 3 4 0 7 5 3 4 1 6 10 11 15 11 10 10 4 2 2 9 14 32 36 22 19 28
18 23 31 43 37 37 39 40 43 47 41 27 18 7 4 2 4 1 5 6 7 10 5 4 3 4 7 25 25 21 21 17 13 7 10 13 8 2 1 5 8 5 7 9 34 23 31
19 27 31 44 37 35 40 33 31 36 40 32 27 10 6 4 4 2 7 5 18 9 4 3 2 2 19 3 4 7 5 6 5 5 7 4 8 4 3 6 13 6 6 11 15 5 32
23 28 38 36 34 33 36 29 25 28 32 32 23 23 7 8 3 1 5 6 4 6 4 1 1 8 10 0 3 7 8 7 8 8 4 6 7 8 5 5 6 5 6 10 7 6 7
22 27 34 35 35 33 35 25 25 28 22 27 23 26 13 7 7 6 5 1 3 2 6 6 5 4 8 5 7 8 7 2 11 14 11 10 5 18 13 9 11 10 6 9 8 9 15
19 27 31 32 32 34 36 29 17 14 15 19 27 21 19 11 25 23 18 11 10 10 6 6 3 6 2 9 6 6 8 10 7 9 12 17 13 9 11 9 16 14 11 9 8 3 4
26 29 32 33 30 33 34 39 10 18 25 17 24 24 24 21 22 42 50 48 45 28 5 6 7 6 7 8 5 3 6 8 10 8 10 14 12 8 16 10 2 16 4 4 12 12 10
Wind_Direction_500mb
346 342 343 338 339 336 336 332 331 327 329 325 319 314 308 309 310 305 313 300 292 289 263 252 251 268 301 217 224 220 164 186 204 194 194 188 187 192 195 189 181 212 196 207 200 165 170
349 347 345 343 343 337 337 333 331 334 330 326 322 319 307 301 290 296 298 296 286 284 267 251 251 250 230 242 225 239 233 69 189 187 195 187 194 188 203 188 189 194 176 204 213 208 184
349 349 346 342 347 340 341 337 332 333 333 326 317 318 315 313 278 291 288 287 285 278 270 246 229 231 237 235 203 232 235 224 190 185 190 184 190 175 173 166 191 163 202 217 217 218 225
351 350 346 345 343 343 344 338 340 334 328 328 318 318 318 319 317 301 284 282 282 271 259 247 214 219 251 249 204 235 214 227 180 185 189 172 165 184 180 157 168 182 186 193 223 221 206
354 351 348 349 349 347 345 352 342 340 338 334 323 312 304 319 311 297 283 289 273 255 234 189 178 197 247 193 210 195 186 172 169 182 186 177 165 167 153 158 156 190 197 211 185 214 208
356 352 351 350 349 349 353 349 349 348 345 345 344 325 306 311 308 325 327 321 336 175 181 172 186 207 242 191 186 197 185 170 159 171 172 181 183 181 182 182 195 188 194 207 215 178 216
355 356 353 349 354 353 354 357 356 355 350 352 355 351 346 254 40 54 37 128 113 101 176 199 219 285 114 170 169 173 185 195 167 169 173 186 183 195 186 196 182 172 189 185 206 155 225
359 357 355 349 353 356 358 6 3 359 0 2 9 20 78 82 81 104 20 100 55 345 267 244 255 268 286 229 151 181 183 196 166 174 146 169 204 188 173 155 171 184 179 188 133 137 244
0 356 354 352 355 359 359 5 5 5 7 15 15 30 83 62 50 18 79 79 354 100 247 75 135 267 281 164 136 142 149 47 155 169 159 140 178 171 167 169 166 173 181 166 142 162 191
357 359 357 354 356 3 3 6 15 15 17 23 27 40 73 37 35 60 52 20 86 83 237 26 95 230 231 184 72 105 125 18 83 138 117 65 281 171 178 178 196 188 171 141 140 202 236
354 359 360 354 360 2 6 8 12 29 31 30 29 34 28 33 73 63 55 46 2 329 69 5 326 315 156 79 121 56 80 18 121 139 168 76 200 174 180 184 195 109 137 126 124 143 271
355 360 1 358 359 3 6 7 1 13 22 25 26 24 28 44 67 61 61 313 316 249 43 7 331 109 143 88 69 112 123 68 91 62 64 77 19 44 54 84 165 135 117 85 90 207 226
354 359 1 1 358 360 7 4 357 353 350 345 351 357 3 6 26 23 346 332 267 43 309 16 70 117 99 76 65 72 43 40 117 118 105 104 44 52 21 79 67 153 160 153 195 203 241
351 0 2 359 359 359 0 7 360 352 342 338 332 341 342 350 346 330 334 268 51 318 359 209 131 85 82 100 83 154 144 87 51 102 103 103 108 117 8 208 169 186 212 239 205 192 143
346 357 2 1 357 0 358 1 4 354 343 344 349 16 357 360 356 355 336 50 56 307 276 127 93 62 79 70 95 73 56 90 100 187 112 131 83 107 23 141 175 164 212 34 95 67 251
342 354 2 0 358 360 358 357 359 359 350 347 358 343 6 4 15 21 43 93 95 208 279 353 82 336 122 108 130 158 67 75 105 42 303 127 112 96 164 166 54 246 133 154 227 197 223
341 349 358 357 357 353 358 354 355 358 353 350 3 74 355 7 51 42 47 65 32 344 308 345 117 121 121 139 164 129 131 136 168 116 115 136 93 137 181 211 170 141 178 69 29 294 271
339 347 355 354 353 352 355 351 353 353 360 359 355 69 4 24 68 61 42 317 317 335 4 84 86 99 139 143 141 136 127 116 166 145 101 59 103 137 145 66 323 251 219 212 243 183 248
336 341 345 354 349 352 351 353 350 353 1 3 357 334 23 69 83 50 8 26 356 12 22 29 96 359 154 129 126 118 133 19 164 156 154 168 120 117 148 196 177 220 192 185 103 83 202
331 332 342 354 349 349 350 353 349 351 354 358 336 244 12 59 56 50 10 15 324 40 331 12 109 132 140 119 55 136 124 48 192 34 118 107 117 290 188 90 124 193 197 192 193 201 167
331 326 339 346 350 348 350 352 350 351 352 356 29 63 6 91 83 55 247 332 319 344 349 342 140 246 166 143 130 139 142 116 134 165 103 139 112 123 169 132 175 215 201 198 206 204 211
333 332 340 347 352 349 350 353 356 358 3 24 35 13 341 96 314 238 103 119 333 340 290 176 198 150 190 177 220 177 164 182 173 170 166 98 121 130 212 195 230 249 233 216 221 232 246
338 353 346 352 358 354 348 354 5 9 18 37 51 36 341 338 330 230 103 355 18 332 174 275 171 148 158 171 175 293 160 167 166 164 158 157 148 161 201 153 287 261 231 214 209 210 216
354 353 347 356 352 352 348 350 6 13 19 23 23 21 326 269 299 47 350 335 315 343 300 307 311 285 108 111 105 95 92 97 124 105 169 155 125 100 260 252 232 62 133 214 215 217 217
351 343 342 346 353 349 345 351 0 12 15 17 19 13 343 279 323 284 346 329 307 292 251 279 8 122 163 161 122 131 140 161 96 78 179 204 148 122 271 244 304 236 196 173 184 195 217
354 356 355 351 349 347 336 336 352 356 7 5 7 11 339 312 173 285 294 305 321 331 278 7 3 174 171 165 188 215 198 186 174 156 84 152 243 215 182 267 257 51 144 199 222 129 159
347 349 358 355 354 347 348 334 329 332 345 2 356 355 350 300 273 230 221 253 276 268 282 300 341 196 188 187 211 220 226 241 185 190 173 173 176 212 217 257 277 248 148 161 201 108 154
333 343 347 349 346 348 347 345 319 330 325 344 345 342 352 300 281 251 245 239 261 240 228 18 252 196 186 214 213 183 230 205 192 198 181 181 185 192 204 217 251 155 138 217 80 109 259
320 312 334 342 337 339 343 354 312 345 329 332 336 331 318 288 274 288 279 262 252 242 250 253 297 264 248 227 238 163 193 186 188 213 193 205 206 188 205 216 282 193 117 187 286 269 277
Wind_Speed_850mb
45 46 47 55 55 58 60 57 61 61 58 56 49 45 44 35 29 28 22 21 17 18 18 18 20 18 13 22 46 17 33 19 52 50 52 50 62 46 33 29 29 25 13 17 11 16 14
47 47 53 54 53 61 64 67 63 62 59 58 50 45 40 42 25 25 19 19 17 17 16 17 13 16 13 31 35 47 40 7 50 57 56 50 50 40 36 29 29 31 11 31 19 18 9
47 51 51 57 62 62 62 60 63 58 58 57 56 50 44 45 27 24 23 18 19 15 16 19 21 17 23 37 17 41 46 25 44 60 58 45 37 36 24 17 25 18 27 17 21 18 16
48 52 53 57 58 66 62 65 61 58 57 57 52 48 38 37 27 21 23 19 19 17 14 10 14 15 18 23 31 22 24 17 38 54 49 39 44 27 21 15 24 25 14 18 22 36 15
50 54 55 57 63 62 62 56 61 64 71 63 59 47 40 31 20 16 13 15 16 16 14 10 13 13 11 19 28 24 30 16 44 49 43 45 45 24 16 28 19 28 21 34 10 15 16
53 52 55 56 60 59 60 60 61 69 70 68 55 34 28 15 13 10 5 9 0 4 14 14 9 10 16 26 19 29 31 18 48 47 38 38 26 20 25 28 28 31 30 23 27 11 18
52 51 52 56 58 56 56 58 64 70 70 66 56 40 12 2 3 6 10 6 3 7 13 9 11 3 16 21 20 22 36 31 48 54 21 51 20 38 40 34 1 20 31 21 16 5 8
56 49 51 53 57 54 55 55 59 67 69 59 53 38 19 11 6 3 10 7 7 2 5 14 9 23 21 8 14 17 29 23 30 39 25 15 28 33 29 20 15 25 25 19 9 7 7
54 48 49 52 57 52 53 54 56 64 74 66 54 32 16 16 12 9 7 10 7 3 2 9 6 14 6 11 11 15 16 1 36 24 36 13 26 36 30 27 23 17 21 13 4 8 2
53 53 49 51 55 53 49 49 52 56 64 74 62 38 22 17 10 13 16 12 6 4 1 9 5 5 9 7 12 15 26 1 10 13 15 4 1 40 37 31 28 19 10 15 11 6 8
53 53 49 50 55 57 48 44 43 43 49 61 69 47 28 22 6 11 11 8 3 8 6 15 10 10 14 3 17 17 21 16 18 20 8 5 6 37 36 35 27 7 13 14 8 5 4
49 50 52 51 55 56 50 42 38 33 31 38 45 49 36 21 18 10 5 4 5 6 12 9 13 11 9 19 14 13 5 19 19 19 22 9 9 8 5 17 11 28 20 14 7 2 7
45 47 50 51 56 55 54 44 40 35 29 29 28 30 36 18 11 9 11 13 3 12 3 11 9 10 22 16 15 10 5 5 7 9 6 6 7 6 6 17 9 2 15 7 8 7 2
41 42 49 54 56 57 55 53 41 37 36 34 29 21 22 22 16 18 15 5 17 7 4 7 10 25 13 8 9 10 15 11 8 6 7 7 9 3 1 2 12 16 7 5 7 8 7
38 39 47 54 57 59 61 57 55 40 36 34 24 9 18 24 16 13 1 11 6 3 5 12 13 12 9 13 8 5 9 6 6 3 4 9 8 7 2 3 8 7 8 5 7 2 4
35 37 43 52 58 58 61 62 58 48 37 29 15 1 26 25 16 7 2 11 2 7 5 3 5 4 6 7 6 6 3 4 5 3 3 5 12 6 6 2 18 3 16 5 2 7 8
32 36 40 48 58 65 62 63 59 57 36 30 10 1 26 20 17 12 7 7 5 4 5 4 6 8 10 7 9 8 6 3 4 6 5 9 6 8 6 7 12 7 6 3 1 4 4
30 35 39 47 57 61 66 58 59 59 38 27 7 1 16 14 6 6 4 4 4 5 3 3 5 7 7 7 8 4 6 2 7 6 6 4 8 9 4 4 4 3 5 10 6 8 0
29 33 38 45 54 59 69 63 57 53 37 28 7 3 14 8 5 6 4 3 3 9 7 5 3 1 2 6 4 5 6 4 10 6 8 10 6 9 4 5 5 11 11 6 7 2 10
31 33 37 44 50 61 68 65 54 46 33 18 5 1 9 15 9 4 2 1 3 2 1 2 4 3 6 5 7 8 6 4 3 1 8 6 5 1 5 5 7 9 19 20 10 7 8
34 31 35 45 47 55 63 63 54 43 32 11 8 4 2 2 6 3 1 4 4 3 3 2 3 3 5 6 6 7 6 7 6 10 4 1 5 3 2 4 6 6 13 26 20 13 11
31 30 35 44 46 44 54 56 55 42 32 10 6 5 5 1 4 2 1 2 4 2 3 2 4 7 4 4 3 12 13 9 6 9 7 1 6 3 3 3 11 15 21 23 30 31 28
28 26 34 45 45 38 45 47 52 45 37 17 9 6 4 3 1 4 3 2 3 7 3 4 0 7 5 3 4 1 6 10 11 15 11 10 10 4 2 2 9 14 32 36 22 19 28
18 23 31 43 37 37 39 40 43 47 41 27 18 7 4 2 4 1 5 6 7 10 5 4 3 4 7 25 25 21 21 17 13 7 10 13 8 2 1 5 8 5 7 9 34 23 31
19 27 31 44 37 35 40 33 31 36 40 32 27 10 6 4 4 2 7 5 18 9 4 3 2 2 19 3 4 7 5 6 5 5 7 4 8 4 3 6 13 6 6 11 15 5 32
23 28 38 36 34 33 36 29 25 28 32 32 23 23 7 8 3 1 5 6 4 6 4 1 1 8 10 0 3 7 8 7 8 8 4 6 7 8 5 5 6 5 6 10 7 6 7
22 27 34 35 35 33 35 25 25 28 22 27 23 26 13 7 7 6 5 1 3 2 6 6 5 4 8 5 7 8 7 2 11 14 11 10 5 18 13 9 11 10 6 9 8 9 15
19 27 31 32 32 34 36 29 17 14 15 19 27 21 19 11 25 23 18 11 10 10 6 6 3 6 2 9 6 6 8 10 7 9 12 17 13 9 11 9 16 14 11 9 8 3 4
26 29 32 33 30 33 34 39 10 18 25 17 24 24 24 21 22 42 50 48 45 28 5 6 7 6 7 8 5 3 6 8 10 8 10 14 12 8 16 10 2 16 4 4 12 12 10
Wind_Direction_850mb
346 342 343 338 339 336 336 332 331 327 329 325 319 314 308 309 310 305 313 300 292 289 263 252 251 268 301 217 224 220 164 186 204 194 194 188 187 192 195 189 181 212 196 207 200 165 170
349 347 345 343 343 337 337 333 331 334 330 326 322 319 307 301 290 296 298 296 286 284 267 251 251 250 230 242 225 239 233 69 189 187 195 187 194 188 203 188 189 194 176 204 213 208 184
349 349 346 342 347 340 341 337 332 333 333 326 317 318 315 313 278 291 288 287 285 278 270 246 229 231 237 235 203 232 235 224 190 185 190 184 190 175 173 166 191 163 202 217 217 218 225
351 350 346 345 343 343 344 338 340 334 328 328 318 318 318 319 317 301 284 282 282 271 259 247 214 219 251 249 204 235 214 227 180 185 189 172 165 184 180 157 168 182 186 193 223 221 206
354 351 348 349 349 347 345 352 342 340 338 334 323 312 304 319 311 297 283 289 273 255 234 189 178 197 247 193 210 195 186 172 169 182 186 177 165 167 153 158 156 190 197 211 185 214 208
356 352 351 350 349 349 353 349 349 348 345 345 344 325 306 311 308 325 327 321 336 175 181 172 186 207 242 191 186 197 185 170 159 171 172 181 183 181 182 182 195 188 194 207 215 178 216
355 356 353 349 354 353 354 357 356 355 350 352 355 351 346 254 40 54 37 128 113 101 176 199 219 285 114 170 169 173 185 195 167 169 173 186 183 195 186 196 182 172 189 185 206 155 225
359 357 355 349 353 356 358 6 3 359 0 2 9 20 78 82 81 104 20 100 55 345 267 244 255 268 286 229 151 181 183 196 166 174 146 169 204 188 173 155 171 184 179 188 133 137 244
0 356 354 352 355 359 359 5 5 5 7 15 15 30 83 62 50 18 79 79 354 100 247 75 135 267 281 164 136 142 149 47 155 169 159 140 178 171 167 169 166 173 181 166 142 162 191
357 359 357 354 356 3 3 6 15 15 17 23 27 40 73 37 35 60 52 20 86 83 237 26 95 230 231 184 72 105 125 18 83 138 117 65 281 171 178 178 196 188 171 141 140 202 236
354 359 360 354 360 2 6 8 12 29 31 30 29 34 28 33 73 63 55 46 2 329 69 5 326 315 156 79 121 56 80 18 121 139 168 76 200 174 180 184 195 109 137 126 124 143 271
355 360 1 358 359 3 6 7 1 13 22 25 26 24 28 44 67 61 61 313 316 249 43 7 331 109 143 88 69 112 123 68 91 62 64 77 19 44 54 84 165 135 117 85 90 207 226
354 359 1 1 358 360 7 4 357 353 350 345 351 357 3 6 26 23 346 332 267 43 309 16 70 117 99 76 65 72 43 40 117 118 105 104 44 52 21 79 67 153 160 153 195 203 241
351 0 2 359 359 359 0 7 360 352 342 338 332 341 342 350 346 330 334 268 51 318 359 209 131 85 82 100 83 154 144 87 51 102 103 103 108 117 8 208 169 186 212 239 205 192 143
346 357 2 1 357 0 358 1 4 354 343 344 349 16 357 360 356 355 336 50 56 307 276 127 93 62 79 70 95 73 56 90 100 187 112 131 83 107 23 141 175 164 212 34 95 67 251
342 354 2 0 358 360 358 357 359 359 350 347 358 343 6 4 15 21 43 93 95 208 279 353 82 336 122 108 130 158 67 75 105 42 303 127 112 96 164 166 54 246 133 154 227 197 223
341 349 358 357 357 353 358 354 355 358 353 350 3 74 355 7 51 42 47 65 32 344 308 345 117 121 121 139 164 129 131 136 168 116 115 136 93 137 181 211 170 141 178 69 29 294 271
339 347 355 354 353 352 355 351 353 353 360 359 355 69 4 24 68 61 42 317 317 335 4 84 86 99 139 143 141 136 127 116 166 145 101 59 103 137 145 66 323 251 219 212 243 183 248
336 341 345 354 349 352 351 353 350 353 1 3 357 334 23 69 83 50 8 26 356 12 22 29 96 359 154 129 126 118 133 19 164 156 154 168 120 117 148 196 177 220 192 185 103 83 202
331 332 342 354 349 349 350 353 349 351 354 358 336 244 12 59 56 50 10 15 324 40 331 12 109 132 140 119 55 136 124 48 192 34 118 107 117 290 188 90 124 193 197 192 193 201 167
331 326 339 346 350 348 350 352 350 351 352 356 29 63 6 91 83 55 247 332 319 344 349 342 140 246 166 143 130 139 142 116 134 165 103 139 112 123 169 132 175 215 201 198 206 204 211
333 332 340 347 352 349 350 353 356 358 3 24 35 13 341 96 314 238 103 119 333 340 290 176 198 150 190 177 220 177 164 182 173 170 166 98 121 130 212 195 230 249 233 216 221 232 246
338 353 346 352 358 354 348 354 5 9 18 37 51 36 341 338 330 230 103 355 18 332 174 275 171 148 158 171 175 293 160 167 166 164 158 157 148 161 201 153 287 261 231 214 209 210 216
354 353 347 356 352 352 348 350 6 13 19 23 23 21 326 269 299 47 350 335 315 343 300 307 311 285 108 111 105 95 92 97 124 105 169 155 125 100 260 252 232 62 133 214 215 217 217
351 343 342 346 353 349 345 351 0 12 15 17 19 13 343 279 323 284 346 329 307 292 251 279 8 122 163 161 122 131 140 161 96 78 179 204 148 122 271 244 304 236 196 173 184 195 217
354 356 355 351 349 347 336 336 352 356 7 5 7 11 339 312 173 285 294 305 321 331 278 7 3 174 171 165 188 215 198 186 174 156 84 152 243 215 182 267 257 51 144 199 222 129 159
347 349 358 355 354 347 348 334 329 332 345 2 356 355 350 300 273 230 221 253 276 268 282 300 341 196 188 187 211 220 226 241 185 190 173 173 176 212 217 257 277 248 148 161 201 108 154
333 343 347 349 346 348 347 345 319 330 325 344 345 342 352 300 281 251 245 239 261 240 228 18 252 196 186 214 213 183 230 205 192 198 181 181 185 192 204 217 251 155 138 217 80 109 259
320 312 334 342 337 339 343 354 312 345 329 332 336 331 318 288 274 288 279 262 252 242 250 253 297 264 248 227 238 163 193 186 188 213 193 205 206 188 205 216 282 193 117 187 286 269 277